Location: Baili�vre
(50.0696°N, 4.2409°E)
Time: 04:48:39
(UTC+00:00)

Iridium 4 Rocket - Pass Details

Date: 08 August 2020
Orbit: 586 x 903 km, 86.9° (Epoch: 19 September)

Event Time Altitude Azimuth Distance (km) Brightness Sun altitude
Exits shadow 22:21:44 55° 198° (SSW) 756 3.2 -21.4°
Maximum altitude 22:22:39 80° 273° (W) 634 3.0 -21.5°
Drops below altitude 10° 22:26:55 10° 1° (N) 1,946 6.6 -21.7°
Sets 22:29:04 0° 3° (N) 2,837 7.6 -21.8°
